AFR551 HECA-LFPG

Flight info

Callsign AFR551
Flight time 4h 20m
Altitude 40000
Route DCT CVO L617 NOZ L551 ANTAR DCT RIGRO DCT DISOR DCT LONTA UL608 DOLEV DCT ROTAR DCT OSKOR DCT GARLO DCT CERVI DCT MOLUS DCT UNKIR/N0494F380 DCT GIVRI/N0494F360 DCT TINIL TINIL9E
Aircraft A359/H-SDE2E3GHIJ3J4J5LM1ORWXY/LB1D1

Departure

Time 2026-05-05 15:04
Airport Cairo International Airport (HECA)

Arrival

Time 2026-05-05 19:24
Airport Charles de Gaulle International Airport (LFPG)
Time Latitude Longitude Altitude Speed Heading
2026-05-05 14:15 30.11112 31.40092 381 ft 0 kts 18°
2026-05-05 14:21 30.11111 31.40092 381 ft 0 kts 18°
2026-05-05 14:35 30.11110 31.40092 380 ft 0 kts 18°
2026-05-05 14:52 30.11093 31.40086 380 ft 10 kts 17°
2026-05-05 14:52 30.11069 31.40077 380 ft 8 kts 17°
2026-05-05 14:52 30.11050 31.40072 380 ft 11 kts 349°
2026-05-05 14:52 30.11032 31.40080 380 ft 13 kts 309°
2026-05-05 14:53 30.11021 31.40100 380 ft 9 kts 290°
2026-05-05 14:53 30.11027 31.40075 380 ft 20 kts 108°
2026-05-05 14:53 30.11019 31.40105 380 ft 37 kts 108°
2026-05-05 14:53 30.11011 31.40135 380 ft 39 kts 108°
2026-05-05 14:54 30.11003 31.40164 380 ft 38 kts 107°
2026-05-05 14:54 30.10995 31.40193 380 ft 40 kts 107°
2026-05-05 14:54 30.10995 31.40194 380 ft 60 kts 107°
2026-05-05 14:56 30.10995 31.40193 380 ft 0 kts 107°
2026-05-05 14:56 30.10994 31.40198 380 ft 4 kts 107°
2026-05-05 14:57 30.10972 31.40280 380 ft 17 kts 107°
2026-05-05 14:57 30.10926 31.40457 380 ft 27 kts 108°
2026-05-05 14:57 30.10913 31.40484 380 ft 0 kts 133°
2026-05-05 14:57 30.10895 31.40485 380 ft 6 kts 186°
2026-05-05 14:58 30.10845 31.40442 380 ft 9 kts 231°
2026-05-05 14:58 30.10802 31.40379 380 ft 12 kts 231°
2026-05-05 14:58 30.10733 31.40282 380 ft 20 kts 228°
2026-05-05 14:58 30.10649 31.40177 380 ft 25 kts 227°
2026-05-05 14:59 30.10525 31.40013 380 ft 28 kts 229°
2026-05-05 14:59 30.10392 31.39840 380 ft 30 kts 229°
2026-05-05 14:59 30.10288 31.39700 380 ft 22 kts 229°
2026-05-05 14:59 30.10181 31.39583 380 ft 17 kts 192°
2026-05-05 15:00 30.10078 31.39640 380 ft 18 kts 145°
2026-05-05 15:00 30.10045 31.39674 380 ft 0 kts 136°
2026-05-05 15:01 30.10044 31.39675 380 ft 1 kts 136°
2026-05-05 15:02 30.10034 31.39687 380 ft 4 kts 133°
2026-05-05 15:02 30.10014 31.39723 380 ft 7 kts 119°
2026-05-05 15:02 30.10004 31.39786 380 ft 11 kts 93°
2026-05-05 15:02 30.10030 31.39899 377 ft 17 kts 58°
2026-05-05 15:03 30.10112 31.40017 378 ft 19 kts 48°
2026-05-05 15:03 30.10316 31.40292 381 ft 80 kts 50°
2026-05-05 15:03 30.10831 31.40971 378 ft 143 kts 49°
2026-05-05 15:03 30.11589 31.41968 647 ft 170 kts 51°
2026-05-05 15:04 30.12338 31.42986 1419 ft 170 kts 44°
2026-05-05 15:04 30.13206 31.44146 1511 ft 214 kts 45°
2026-05-05 15:04 30.14223 31.45517 1750 ft 235 kts 46°
2026-05-05 15:04 30.15480 31.46801 2139 ft 245 kts 25°
2026-05-05 15:05 30.18789 31.46911 3448 ft 246 kts 342°
2026-05-05 15:05 30.20371 31.46155 4149 ft 248 kts 328°
2026-05-05 15:05 30.21773 31.44988 4844 ft 251 kts 320°
2026-05-05 15:06 30.22632 31.44100 5289 ft 252 kts 316°
2026-05-05 15:06 30.23867 31.42635 5942 ft 256 kts 313°
2026-05-05 15:06 30.25054 31.41083 6642 ft 259 kts 311°
2026-05-05 15:06 30.26225 31.39496 7318 ft 261 kts 310°
2026-05-05 15:07 30.27409 31.37891 8017 ft 263 kts 310°
2026-05-05 15:07 30.28608 31.36282 8697 ft 265 kts 310°
2026-05-05 15:07 30.29824 31.34670 9414 ft 267 kts 311°
2026-05-05 15:07 30.31057 31.33051 10040 ft 270 kts 311°
2026-05-05 15:08 30.32327 31.31397 10428 ft 282 kts 311°
2026-05-05 15:08 30.33665 31.29658 10668 ft 297 kts 310°
2026-05-05 15:08 30.35072 31.27829 10906 ft 312 kts 310°
2026-05-05 15:08 30.36546 31.25911 11138 ft 325 kts 310°
2026-05-05 15:09 30.38074 31.23921 11371 ft 337 kts 310°
2026-05-05 15:09 30.39646 31.21875 11764 ft 342 kts 310°
2026-05-05 15:09 30.41237 31.19808 12251 ft 344 kts 310°
2026-05-05 15:09 30.42835 31.17731 12731 ft 347 kts 310°
2026-05-05 15:10 30.44420 31.15666 13197 ft 349 kts 310°
2026-05-05 15:10 30.46035 31.13557 13684 ft 351 kts 309°
2026-05-05 15:10 30.47656 31.11436 14120 ft 352 kts 309°
2026-05-05 15:10 30.49285 31.09306 14552 ft 354 kts 309°
2026-05-05 15:11 30.50916 31.07171 14997 ft 355 kts 309°
2026-05-05 15:11 30.52557 31.05024 15416 ft 356 kts 309°
2026-05-05 15:11 30.54202 31.02871 15869 ft 357 kts 309°
2026-05-05 15:11 30.55849 31.00714 16336 ft 358 kts 309°
2026-05-05 15:12 30.57496 30.98555 16796 ft 359 kts 309°
2026-05-05 15:12 30.59155 30.96379 17218 ft 360 kts 309°
2026-05-05 15:12 30.60819 30.94197 17667 ft 362 kts 309°
2026-05-05 15:12 30.62488 30.92004 18093 ft 363 kts 309°
2026-05-05 15:13 30.64161 30.89806 18491 ft 365 kts 309°
2026-05-05 15:13 30.65845 30.87593 18868 ft 366 kts 308°
2026-05-05 15:13 30.67534 30.85372 19243 ft 367 kts 308°
2026-05-05 15:13 30.69226 30.83146 19610 ft 368 kts 308°
2026-05-05 15:14 30.70922 30.80912 19990 ft 369 kts 308°
2026-05-05 15:14 30.72624 30.78670 20359 ft 370 kts 308°
2026-05-05 15:14 30.74326 30.76426 20720 ft 371 kts 308°
2026-05-05 15:14 30.76036 30.74171 21080 ft 373 kts 308°
2026-05-05 15:15 30.77754 30.71904 21455 ft 374 kts 308°
2026-05-05 15:15 30.79472 30.69636 21794 ft 375 kts 308°
2026-05-05 15:15 30.81197 30.67357 22136 ft 376 kts 308°
2026-05-05 15:15 30.82927 30.65070 22468 ft 377 kts 308°
2026-05-05 15:16 30.84661 30.62777 22811 ft 378 kts 308°
2026-05-05 15:16 30.86402 30.60472 23134 ft 380 kts 308°
2026-05-05 15:16 30.88149 30.58158 23442 ft 381 kts 308°
2026-05-05 15:16 30.89877 30.55868 23754 ft 382 kts 307°
2026-05-05 15:17 30.91634 30.53538 24005 ft 384 kts 307°
2026-05-05 15:17 30.93400 30.51194 24253 ft 386 kts 307°
2026-05-05 15:17 30.95172 30.48841 24506 ft 387 kts 307°
2026-05-05 15:17 30.96951 30.46478 24767 ft 389 kts 307°
2026-05-05 15:18 30.98737 30.44104 25024 ft 390 kts 307°
2026-05-05 15:18 31.00527 30.41725 25271 ft 392 kts 307°
2026-05-05 15:18 31.02328 30.39328 25529 ft 394 kts 307°
2026-05-05 15:18 31.04135 30.36921 25789 ft 395 kts 307°
2026-05-05 15:19 31.05949 30.34504 26056 ft 397 kts 307°
2026-05-05 15:19 31.07768 30.32079 26331 ft 398 kts 307°
2026-05-05 15:19 31.09416 30.29491 26580 ft 396 kts 297°
2026-05-05 15:19 31.10568 30.26577 26862 ft 396 kts 289°
2026-05-05 15:20 31.11433 30.23523 27164 ft 397 kts 286°
2026-05-05 15:20 31.12180 30.20412 27457 ft 399 kts 285°
2026-05-05 15:20 31.12908 30.17278 27769 ft 401 kts 285°
2026-05-05 15:20 31.13660 30.14150 28093 ft 403 kts 285°
2026-05-05 15:21 31.14456 30.10999 28413 ft 405 kts 286°
2026-05-05 15:21 31.15284 30.07844 28739 ft 407 kts 287°
2026-05-05 15:21 31.16133 30.04686 29053 ft 409 kts 287°
2026-05-05 15:21 31.16995 30.01517 29396 ft 411 kts 287°
2026-05-05 15:22 31.17865 29.98329 29726 ft 413 kts 287°
2026-05-05 15:22 31.18888 29.95185 30019 ft 417 kts 297°
2026-05-05 15:22 31.20646 29.92460 30338 ft 426 kts 312°
2026-05-05 15:22 31.23079 29.90423 30620 ft 438 kts 327°
2026-05-05 15:23 31.25898 29.88994 30919 ft 445 kts 333°
2026-05-05 15:23 31.28816 29.87751 31214 ft 448 kts 334°
2026-05-05 15:23 31.31732 29.86446 31515 ft 448 kts 332°
2026-05-05 15:23 31.34594 29.85005 31804 ft 448 kts 329°
2026-05-05 15:24 31.37403 29.83435 32084 ft 448 kts 327°
2026-05-05 15:24 31.40177 29.81770 32359 ft 449 kts 326°
2026-05-05 15:24 31.42942 29.80045 32636 ft 450 kts 326°
2026-05-05 15:24 31.45659 29.78322 32925 ft 451 kts 326°
2026-05-05 15:25 31.48410 29.76572 33334 ft 449 kts 326°
2026-05-05 15:25 31.51150 29.74833 33735 ft 448 kts 326°
2026-05-05 15:25 31.53889 29.73100 34125 ft 447 kts 326°
2026-05-05 15:25 31.56623 29.71375 34451 ft 446 kts 326°
2026-05-05 15:26 31.59356 29.69653 34766 ft 446 kts 326°
2026-05-05 15:26 31.62086 29.67933 35063 ft 446 kts 326°
2026-05-05 15:26 31.64822 29.66209 35377 ft 446 kts 326°
2026-05-05 15:26 31.67555 29.64486 35678 ft 446 kts 326°
2026-05-05 15:27 31.70284 29.62764 35991 ft 446 kts 326°
2026-05-05 15:27 31.73016 29.61039 36307 ft 446 kts 326°
2026-05-05 15:27 31.75746 29.59313 36598 ft 446 kts 326°
2026-05-05 15:27 31.78476 29.57587 36889 ft 446 kts 326°
2026-05-05 15:28 31.81210 29.55856 37178 ft 446 kts 326°
2026-05-05 15:28 31.83948 29.54123 37475 ft 447 kts 326°
2026-05-05 15:28 31.86681 29.52391 37771 ft 447 kts 326°
2026-05-05 15:28 31.89417 29.50656 38046 ft 447 kts 326°
2026-05-05 15:29 31.92156 29.48918 38332 ft 447 kts 326°
2026-05-05 15:29 31.94897 29.47178 38596 ft 448 kts 326°
2026-05-05 15:29 31.97644 29.45432 38835 ft 448 kts 326°
2026-05-05 15:29 32.00390 29.43686 39031 ft 449 kts 326°
2026-05-05 15:30 32.03139 29.41942 39242 ft 449 kts 326°
2026-05-05 15:30 32.05887 29.40194 39442 ft 449 kts 326°
2026-05-05 15:30 32.08637 29.38441 39632 ft 449 kts 326°
2026-05-05 15:30 32.11382 29.36689 39832 ft 449 kts 326°
2026-05-05 15:31 32.14135 29.34931 40014 ft 450 kts 326°
2026-05-05 15:31 32.19652 29.31405 40090 ft 451 kts 326°
2026-05-05 15:32 32.25165 29.27885 40088 ft 451 kts 326°
2026-05-05 15:32 32.30676 29.24351 40087 ft 451 kts 326°
2026-05-05 15:33 32.36186 29.20809 40090 ft 451 kts 326°
2026-05-05 15:33 32.41659 29.17288 40091 ft 450 kts 327°
2026-05-05 15:34 32.47160 29.13747 40089 ft 450 kts 327°
2026-05-05 15:34 32.52666 29.10198 40089 ft 450 kts 327°
2026-05-05 15:35 32.58164 29.06649 40088 ft 450 kts 327°
2026-05-05 15:35 32.63657 29.03098 40090 ft 450 kts 327°
2026-05-05 15:36 32.69152 28.99540 40078 ft 450 kts 327°
2026-05-05 15:36 32.74640 28.95982 40087 ft 450 kts 327°
2026-05-05 15:37 32.80134 28.92415 40079 ft 450 kts 327°
2026-05-05 15:37 32.85631 28.88841 40082 ft 450 kts 327°
2026-05-05 15:38 32.91127 28.85263 40080 ft 450 kts 327°
2026-05-05 15:38 32.96626 28.81678 40077 ft 451 kts 327°
2026-05-05 15:39 33.02118 28.78091 40078 ft 450 kts 327°
2026-05-05 15:39 33.07614 28.74497 40077 ft 450 kts 327°
2026-05-05 15:40 33.13070 28.70925 40076 ft 450 kts 327°
2026-05-05 15:40 33.18590 28.67305 40073 ft 450 kts 327°
2026-05-05 15:41 33.24066 28.63709 40077 ft 449 kts 327°
2026-05-05 15:41 33.29508 28.60130 40070 ft 449 kts 327°
2026-05-05 15:42 33.34976 28.56529 40073 ft 449 kts 327°
2026-05-05 15:42 33.40435 28.52928 40071 ft 448 kts 327°
2026-05-05 15:43 33.45896 28.49321 40068 ft 448 kts 327°
2026-05-05 15:43 33.51345 28.45717 40068 ft 447 kts 327°
2026-05-05 15:44 33.56789 28.42110 40068 ft 447 kts 327°
2026-05-05 15:44 33.62229 28.38502 40068 ft 446 kts 327°
2026-05-05 15:45 33.67656 28.34896 40064 ft 446 kts 327°
2026-05-05 15:45 33.73082 28.31286 40065 ft 446 kts 327°
2026-05-05 15:46 33.78506 28.27672 40067 ft 445 kts 327°
2026-05-05 15:46 33.83966 28.24143 40065 ft 446 kts 329°
2026-05-05 15:47 33.89541 28.20855 40064 ft 446 kts 330°
2026-05-05 15:47 33.95119 28.17581 40062 ft 446 kts 330°
2026-05-05 15:48 34.00675 28.14267 40060 ft 445 kts 330°
2026-05-05 15:48 34.06219 28.10928 40060 ft 445 kts 330°
2026-05-05 15:49 34.11749 28.07587 40057 ft 444 kts 330°
2026-05-05 15:49 34.17276 28.04246 40056 ft 444 kts 330°
2026-05-05 15:50 34.22799 28.00904 40057 ft 443 kts 330°
2026-05-05 15:50 34.28311 27.97564 40057 ft 443 kts 330°
2026-05-05 15:51 34.33815 27.94223 40055 ft 443 kts 330°
2026-05-05 15:51 34.39322 27.90876 40054 ft 442 kts 330°
2026-05-05 15:52 34.44819 27.87530 40052 ft 442 kts 330°
2026-05-05 15:52 34.50309 27.84183 40050 ft 442 kts 330°
2026-05-05 15:53 34.55763 27.80854 40053 ft 441 kts 330°
2026-05-05 15:53 34.61282 27.77479 40045 ft 441 kts 330°
2026-05-05 15:54 34.66727 27.74145 40046 ft 441 kts 330°
2026-05-05 15:54 34.72207 27.70785 40050 ft 441 kts 330°
2026-05-05 15:55 34.77682 27.67422 40055 ft 441 kts 330°
2026-05-05 15:55 34.83155 27.64056 40037 ft 441 kts 330°
2026-05-05 15:56 34.88628 27.60685 40041 ft 441 kts 330°
2026-05-05 15:56 34.93173 27.57881 40045 ft 440 kts 330°
2026-05-05 15:57 34.98630 27.54510 40046 ft 440 kts 330°
2026-05-05 15:57 35.04097 27.51129 40042 ft 440 kts 330°
2026-05-05 15:58 35.09554 27.47748 40041 ft 440 kts 330°
2026-05-05 15:58 35.15006 27.44364 40040 ft 440 kts 330°
2026-05-05 15:59 35.20459 27.40976 40042 ft 440 kts 330°
2026-05-05 15:59 35.25912 27.37582 40045 ft 440 kts 330°
2026-05-05 16:00 35.31368 27.34181 40048 ft 440 kts 330°
2026-05-05 16:00 35.36830 27.30771 40049 ft 440 kts 330°
2026-05-05 16:01 35.42284 27.27361 40048 ft 440 kts 330°
2026-05-05 16:01 35.47743 27.23943 40048 ft 440 kts 330°
2026-05-05 16:02 35.53196 27.20524 40047 ft 440 kts 330°
2026-05-05 16:02 35.58648 27.17099 40047 ft 440 kts 330°
2026-05-05 16:03 35.64100 27.13669 40047 ft 440 kts 330°
2026-05-05 16:03 35.69541 27.10242 40047 ft 439 kts 330°
2026-05-05 16:04 35.74967 27.06818 40045 ft 439 kts 330°
2026-05-05 16:04 35.80401 27.03383 40046 ft 439 kts 330°
2026-05-05 16:05 35.85795 26.99968 40046 ft 439 kts 330°
2026-05-05 16:05 35.91231 26.96523 40045 ft 439 kts 330°
2026-05-05 16:06 35.96669 26.93070 40047 ft 440 kts 330°
2026-05-05 16:06 36.02105 26.89613 40047 ft 439 kts 330°
2026-05-05 16:07 36.07540 26.86152 40048 ft 440 kts 330°
2026-05-05 16:07 36.12980 26.82682 40046 ft 440 kts 330°
2026-05-05 16:08 36.18419 26.79206 40047 ft 440 kts 330°
2026-05-05 16:08 36.23856 26.75727 40045 ft 440 kts 330°
2026-05-05 16:09 36.29295 26.72241 40042 ft 440 kts 330°
2026-05-05 16:09 36.34729 26.68752 40045 ft 440 kts 330°
2026-05-05 16:10 36.40164 26.65259 40049 ft 440 kts 330°
2026-05-05 16:10 36.45601 26.61757 40047 ft 441 kts 330°
2026-05-05 16:11 36.51044 26.58246 40047 ft 441 kts 330°
2026-05-05 16:12 36.61932 26.51206 40039 ft 441 kts 330°
2026-05-05 16:13 36.75512 26.42394 40044 ft 441 kts 330°
2026-05-05 16:13 36.80991 26.38828 40047 ft 441 kts 330°
2026-05-05 16:14 36.91832 26.31757 40052 ft 441 kts 330°
2026-05-05 16:15 37.02719 26.24632 40045 ft 442 kts 330°
2026-05-05 16:16 37.13619 26.17476 40045 ft 442 kts 330°
2026-05-05 16:17 37.21796 26.12091 40049 ft 443 kts 330°
2026-05-05 16:18 37.29979 26.06690 40050 ft 443 kts 330°
2026-05-05 16:19 37.38155 26.01280 40047 ft 443 kts 330°
2026-05-05 16:19 37.46329 25.95858 40045 ft 443 kts 330°
2026-05-05 16:20 37.57216 25.88615 40049 ft 442 kts 330°
2026-05-05 16:22 37.70307 25.78482 40048 ft 442 kts 326°
2026-05-05 16:23 37.80630 25.70048 40048 ft 442 kts 327°
2026-05-05 16:23 37.88408 25.63783 40048 ft 442 kts 327°
2026-05-05 16:24 37.93603 25.59588 40048 ft 443 kts 327°
2026-05-05 16:25 38.01472 25.53213 40042 ft 443 kts 327°
2026-05-05 16:25 38.09172 25.46958 40046 ft 443 kts 327°
2026-05-05 16:26 38.19569 25.38488 40048 ft 444 kts 327°
2026-05-05 16:27 38.24750 25.34228 40047 ft 444 kts 324°
2026-05-05 16:27 38.29780 25.29658 40049 ft 444 kts 323°
2026-05-05 16:28 38.34750 25.24983 40048 ft 444 kts 323°
2026-05-05 16:28 38.39717 25.20284 40049 ft 445 kts 323°
2026-05-05 16:29 38.44685 25.15589 40049 ft 445 kts 323°
2026-05-05 16:29 38.49661 25.10888 40048 ft 445 kts 323°
2026-05-05 16:30 38.54643 25.06175 40049 ft 445 kts 323°
2026-05-05 16:30 38.59623 25.01455 40044 ft 446 kts 323°
2026-05-05 16:31 38.64602 24.96727 40047 ft 446 kts 323°
2026-05-05 16:31 38.69577 24.91994 40047 ft 446 kts 323°
2026-05-05 16:32 38.74560 24.87246 40045 ft 446 kts 323°
2026-05-05 16:32 38.79538 24.82493 40045 ft 447 kts 323°
2026-05-05 16:33 38.84520 24.77729 40045 ft 447 kts 323°
2026-05-05 16:33 38.89503 24.72954 40044 ft 447 kts 323°
2026-05-05 16:34 38.94483 24.68175 40042 ft 447 kts 323°
2026-05-05 16:34 38.99461 24.63388 40044 ft 447 kts 323°
2026-05-05 16:35 39.04413 24.58619 40043 ft 448 kts 323°
2026-05-05 16:35 39.09428 24.53779 40043 ft 448 kts 323°
2026-05-05 16:36 39.14378 24.48994 40040 ft 448 kts 323°
2026-05-05 16:36 39.19360 24.44169 40039 ft 448 kts 323°
2026-05-05 16:37 39.24341 24.39335 40037 ft 448 kts 323°
2026-05-05 16:37 39.29318 24.34499 40036 ft 448 kts 323°
2026-05-05 16:38 39.34299 24.29648 40037 ft 448 kts 323°
2026-05-05 16:38 39.39278 24.24790 40034 ft 448 kts 323°
2026-05-05 16:39 39.44260 24.19921 40031 ft 449 kts 323°
2026-05-05 16:39 39.49235 24.15050 40031 ft 449 kts 323°
2026-05-05 16:40 39.54215 24.10164 40028 ft 449 kts 323°
2026-05-05 16:40 39.59194 24.05271 40029 ft 449 kts 323°
2026-05-05 16:41 39.64171 24.00371 40027 ft 449 kts 323°
2026-05-05 16:41 39.69152 23.95458 40029 ft 450 kts 323°
2026-05-05 16:42 39.73323 23.91336 40025 ft 450 kts 323°
2026-05-05 16:42 39.78308 23.86402 40028 ft 450 kts 323°
2026-05-05 16:43 39.83284 23.81467 40022 ft 450 kts 323°
2026-05-05 16:43 39.88268 23.76515 40025 ft 450 kts 323°
2026-05-05 16:44 39.93242 23.71564 40020 ft 451 kts 323°
2026-05-05 16:44 39.98191 23.66629 40017 ft 451 kts 323°
2026-05-05 16:45 40.03167 23.61658 40019 ft 451 kts 323°
2026-05-05 16:45 40.08144 23.56676 40017 ft 451 kts 323°
2026-05-05 16:46 40.13119 23.51686 40017 ft 451 kts 323°
2026-05-05 16:46 40.18093 23.46688 40012 ft 451 kts 323°
2026-05-05 16:47 40.23071 23.41677 40011 ft 451 kts 323°
2026-05-05 16:47 40.28047 23.36658 40007 ft 452 kts 323°
2026-05-05 16:48 40.33024 23.31628 40002 ft 452 kts 323°
2026-05-05 16:48 40.38002 23.26587 39999 ft 452 kts 323°
2026-05-05 16:49 40.42979 23.21539 39989 ft 452 kts 322°
2026-05-05 16:49 40.47961 23.16475 39992 ft 453 kts 322°
2026-05-05 16:50 40.52936 23.11409 39993 ft 453 kts 322°
2026-05-05 16:50 40.57916 23.06327 39993 ft 453 kts 322°
2026-05-05 16:51 40.62889 23.01244 39992 ft 453 kts 322°
2026-05-05 16:51 40.67863 22.96148 39993 ft 453 kts 322°
2026-05-05 16:52 40.72841 22.91040 39987 ft 453 kts 322°
2026-05-05 16:52 40.77817 22.85923 39980 ft 454 kts 322°
2026-05-05 16:53 40.82796 22.80793 39971 ft 454 kts 322°
2026-05-05 16:53 40.87776 22.75652 39972 ft 454 kts 322°
2026-05-05 16:54 40.92751 22.70506 39969 ft 454 kts 322°
2026-05-05 16:54 40.97731 22.65346 39969 ft 455 kts 322°
2026-05-05 16:55 41.02713 22.60172 39973 ft 455 kts 322°
2026-05-05 16:55 41.07688 22.54995 39976 ft 455 kts 322°
2026-05-05 16:56 41.12668 22.49803 39977 ft 455 kts 322°
2026-05-05 16:56 41.17644 22.44606 39979 ft 455 kts 322°
2026-05-05 16:57 41.22620 22.39398 39989 ft 456 kts 322°
2026-05-05 16:57 41.27600 22.34175 39987 ft 456 kts 322°
2026-05-05 16:58 41.32578 22.28944 39987 ft 456 kts 322°
2026-05-05 16:58 41.37558 22.23699 39995 ft 457 kts 322°
2026-05-05 16:59 41.42535 22.18447 39991 ft 457 kts 322°
2026-05-05 16:59 41.47521 22.13177 39984 ft 457 kts 322°
2026-05-05 17:00 41.52502 22.07899 39982 ft 457 kts 322°
2026-05-05 17:00 41.57488 22.02607 39976 ft 458 kts 322°
2026-05-05 17:01 41.62435 21.97345 39977 ft 458 kts 322°
2026-05-05 17:01 41.67419 21.92032 39976 ft 458 kts 322°
2026-05-05 17:02 41.72400 21.86712 39974 ft 458 kts 322°
2026-05-05 17:02 41.77384 21.81380 39967 ft 458 kts 322°
2026-05-05 17:03 41.82354 21.76050 39970 ft 458 kts 322°
2026-05-05 17:03 41.87333 21.70699 39968 ft 458 kts 322°
2026-05-05 17:04 41.92303 21.65346 39968 ft 458 kts 322°
2026-05-05 17:04 41.97280 21.59977 39964 ft 459 kts 322°
2026-05-05 17:05 42.02250 21.54602 39965 ft 458 kts 322°
2026-05-05 17:05 42.07219 21.49218 39971 ft 458 kts 322°
2026-05-05 17:06 42.12180 21.43832 39978 ft 458 kts 322°
2026-05-05 17:06 42.17014 21.38260 39986 ft 459 kts 315°
2026-05-05 17:07 42.21250 21.31803 39996 ft 460 kts 311°
2026-05-05 17:07 42.25292 21.25108 40006 ft 460 kts 310°
2026-05-05 17:08 42.29373 21.18450 40012 ft 460 kts 311°
2026-05-05 17:08 42.33495 21.11846 40014 ft 460 kts 311°
2026-05-05 17:09 42.37602 21.05296 40023 ft 459 kts 311°
2026-05-05 17:09 42.41755 20.98657 40021 ft 459 kts 311°
2026-05-05 17:10 42.45877 20.92044 40021 ft 460 kts 311°
2026-05-05 17:10 42.49970 20.85462 40019 ft 460 kts 311°
2026-05-05 17:11 42.54084 20.78831 40021 ft 459 kts 311°
2026-05-05 17:11 42.58189 20.72198 40015 ft 459 kts 311°
2026-05-05 17:12 42.62291 20.65557 40014 ft 459 kts 311°
2026-05-05 17:12 42.66390 20.58906 40010 ft 459 kts 311°
2026-05-05 17:13 42.70491 20.52237 40009 ft 459 kts 311°
2026-05-05 17:13 42.74583 20.45566 40010 ft 459 kts 311°
2026-05-05 17:14 42.78675 20.38880 40011 ft 459 kts 311°
2026-05-05 17:14 42.82748 20.32185 40009 ft 460 kts 309°
2026-05-05 17:15 42.86126 20.24779 40015 ft 461 kts 298°
2026-05-05 17:15 42.88939 20.16966 40016 ft 462 kts 297°
2026-05-05 17:16 42.91751 20.09095 40021 ft 462 kts 298°
2026-05-05 17:16 42.94636 20.01273 40019 ft 461 kts 298°
2026-05-05 17:17 42.97556 19.93471 40024 ft 463 kts 298°
2026-05-05 17:17 43.00517 19.85559 40022 ft 472 kts 298°
2026-05-05 17:18 43.03508 19.77530 40025 ft 474 kts 298°
2026-05-05 17:18 43.06455 19.69582 40033 ft 464 kts 298°
2026-05-05 17:19 43.09351 19.61748 40031 ft 459 kts 298°
2026-05-05 17:19 43.12224 19.53960 40032 ft 458 kts 298°
2026-05-05 17:20 43.15087 19.46180 40036 ft 458 kts 297°
2026-05-05 17:20 43.17947 19.38386 40037 ft 457 kts 297°
2026-05-05 17:21 43.20796 19.30596 40039 ft 457 kts 297°
2026-05-05 17:22 43.25058 19.18906 40041 ft 456 kts 297°
2026-05-05 17:22 43.27891 19.11113 40045 ft 456 kts 297°
2026-05-05 17:23 43.30714 19.03320 40047 ft 456 kts 297°
2026-05-05 17:23 43.33511 18.95578 40049 ft 455 kts 297°
2026-05-05 17:24 43.36321 18.87775 40050 ft 455 kts 297°
2026-05-05 17:24 43.39118 18.79990 40058 ft 455 kts 297°
2026-05-05 17:25 43.41912 18.72189 40059 ft 454 kts 297°
2026-05-05 17:25 43.44699 18.64390 40063 ft 454 kts 296°
2026-05-05 17:26 43.47476 18.56594 40064 ft 454 kts 296°
2026-05-05 17:26 43.50248 18.48792 40068 ft 453 kts 296°
2026-05-05 17:27 43.53013 18.40995 40067 ft 450 kts 295°
2026-05-05 17:27 43.55733 18.33296 40064 ft 445 kts 295°
2026-05-05 17:28 43.58430 18.25628 40062 ft 445 kts 295°
2026-05-05 17:28 43.61128 18.17943 40063 ft 445 kts 295°
2026-05-05 17:29 43.63827 18.10238 40062 ft 446 kts 295°
2026-05-05 17:29 43.66519 18.02531 40065 ft 446 kts 295°
2026-05-05 17:30 43.68751 17.96121 40067 ft 446 kts 295°
2026-05-05 17:30 43.71438 17.88387 40072 ft 447 kts 294°
2026-05-05 17:31 43.74121 17.80643 40070 ft 446 kts 294°
2026-05-05 17:31 43.76799 17.72894 40073 ft 446 kts 294°
2026-05-05 17:32 43.79471 17.65137 40067 ft 447 kts 294°
2026-05-05 17:32 43.82140 17.57367 40064 ft 447 kts 294°
2026-05-05 17:33 43.84802 17.49601 40064 ft 447 kts 294°
2026-05-05 17:33 43.87462 17.41812 40064 ft 447 kts 294°
2026-05-05 17:34 43.90114 17.34023 40063 ft 447 kts 294°
2026-05-05 17:34 43.92742 17.26283 40059 ft 447 kts 294°
2026-05-05 17:35 43.95388 17.18470 40055 ft 448 kts 294°
2026-05-05 17:35 43.98029 17.10647 40058 ft 448 kts 294°
2026-05-05 17:36 44.00671 17.02800 40057 ft 448 kts 294°
2026-05-05 17:36 44.03307 16.94945 40066 ft 449 kts 294°
2026-05-05 17:37 44.05941 16.87078 40058 ft 449 kts 293°
2026-05-05 17:37 44.08574 16.79188 40063 ft 450 kts 293°
2026-05-05 17:38 44.11202 16.71290 40060 ft 450 kts 293°
2026-05-05 17:38 44.13831 16.63363 40058 ft 451 kts 293°
2026-05-05 17:39 44.16456 16.55428 40055 ft 452 kts 293°
2026-05-05 17:39 44.19078 16.47478 40054 ft 452 kts 293°
2026-05-05 17:40 44.21693 16.39523 40049 ft 452 kts 293°
2026-05-05 17:40 44.24311 16.31534 40050 ft 453 kts 293°
2026-05-05 17:41 44.26926 16.23535 40053 ft 453 kts 293°
2026-05-05 17:41 44.29532 16.15534 40050 ft 453 kts 293°
2026-05-05 17:42 44.32135 16.07521 40048 ft 453 kts 292°
2026-05-05 17:42 44.34720 15.99538 40048 ft 454 kts 292°
2026-05-05 17:43 44.37330 15.91453 40049 ft 454 kts 292°
2026-05-05 17:43 44.39924 15.83397 40049 ft 454 kts 292°
2026-05-05 17:44 44.42511 15.75335 40053 ft 454 kts 292°
2026-05-05 17:44 44.45089 15.67275 40050 ft 454 kts 292°
2026-05-05 17:45 44.47660 15.59211 40047 ft 454 kts 292°
2026-05-05 17:45 44.50209 15.51195 40047 ft 454 kts 292°
2026-05-05 17:46 44.52770 15.43114 40041 ft 453 kts 292°
2026-05-05 17:46 44.55324 15.35033 40034 ft 453 kts 292°
2026-05-05 17:47 44.57869 15.26952 40031 ft 453 kts 292°
2026-05-05 17:47 44.60408 15.18865 40027 ft 453 kts 291°
2026-05-05 17:48 44.62942 15.10772 40026 ft 453 kts 291°
2026-05-05 17:48 44.65468 15.02672 40025 ft 453 kts 291°
2026-05-05 17:49 44.67990 14.94563 40024 ft 453 kts 291°
2026-05-05 17:49 44.70506 14.86452 40023 ft 453 kts 291°
2026-05-05 17:50 44.73016 14.78331 40023 ft 453 kts 291°
2026-05-05 17:50 44.75520 14.70204 40020 ft 452 kts 291°
2026-05-05 17:51 44.78016 14.62077 40022 ft 452 kts 291°
2026-05-05 17:51 44.80506 14.53946 40017 ft 452 kts 291°
2026-05-05 17:52 44.82990 14.45806 40017 ft 452 kts 291°
2026-05-05 17:52 44.85465 14.37669 40017 ft 452 kts 291°
2026-05-05 17:53 44.87939 14.29511 40020 ft 452 kts 291°
2026-05-05 17:53 44.90405 14.21354 40020 ft 452 kts 291°
2026-05-05 17:54 44.92867 14.13182 40021 ft 453 kts 291°
2026-05-05 17:54 44.95324 14.05002 40021 ft 453 kts 291°
2026-05-05 17:55 44.97775 13.96813 40021 ft 453 kts 290°
2026-05-05 17:55 45.00221 13.88617 40023 ft 453 kts 290°
2026-05-05 17:56 45.02666 13.80397 40019 ft 453 kts 290°
2026-05-05 17:56 45.05088 13.72228 40019 ft 454 kts 290°
2026-05-05 17:57 45.07522 13.63991 40015 ft 454 kts 290°
2026-05-05 17:57 45.09950 13.55746 40007 ft 454 kts 290°
2026-05-05 17:58 45.12378 13.47474 40002 ft 455 kts 290°
2026-05-05 17:58 45.14799 13.39201 39999 ft 455 kts 290°
2026-05-05 17:59 45.17218 13.30904 39995 ft 456 kts 290°
2026-05-05 17:59 45.19631 13.22603 39991 ft 456 kts 290°
2026-05-05 18:00 45.22043 13.14274 39991 ft 457 kts 290°
2026-05-05 18:00 45.24453 13.05927 39989 ft 457 kts 290°
2026-05-05 18:01 45.26721 12.97512 39989 ft 455 kts 284°
2026-05-05 18:01 45.28114 12.88837 39983 ft 454 kts 279°
2026-05-05 18:02 45.29249 12.80019 39981 ft 454 kts 278°
2026-05-05 18:02 45.30440 12.71219 39986 ft 454 kts 279°
2026-05-05 18:03 45.31695 12.62420 39985 ft 454 kts 279°
2026-05-05 18:03 45.32967 12.53619 39990 ft 454 kts 279°
2026-05-05 18:04 45.34229 12.44827 39989 ft 455 kts 279°
2026-05-05 18:04 45.35483 12.36013 39994 ft 455 kts 279°
2026-05-05 18:05 45.36730 12.27193 39993 ft 455 kts 279°
2026-05-05 18:05 45.37969 12.18374 39994 ft 455 kts 279°
2026-05-05 18:06 45.39200 12.09556 40001 ft 455 kts 279°
2026-05-05 18:06 45.40425 12.00731 40004 ft 455 kts 279°
2026-05-05 18:07 45.41643 11.91907 40009 ft 455 kts 278°
2026-05-05 18:07 45.42854 11.83079 40008 ft 454 kts 278°
2026-05-05 18:08 45.44059 11.74245 40010 ft 454 kts 278°
2026-05-05 18:08 45.45256 11.65412 40011 ft 454 kts 278°
2026-05-05 18:09 45.46447 11.56572 40012 ft 454 kts 278°
2026-05-05 18:09 45.47622 11.47792 40011 ft 454 kts 278°
2026-05-05 18:10 45.48807 11.38884 40004 ft 454 kts 278°
2026-05-05 18:10 45.49969 11.30095 39990 ft 454 kts 278°
2026-05-05 18:11 45.51132 11.21238 39981 ft 454 kts 278°
2026-05-05 18:11 45.52290 11.12370 39982 ft 455 kts 278°
2026-05-05 18:12 45.53440 11.03510 39973 ft 456 kts 277°
2026-05-05 18:12 45.54590 10.94588 39972 ft 456 kts 277°
2026-05-05 18:13 45.55731 10.85680 39975 ft 457 kts 277°
2026-05-05 18:13 45.56865 10.76766 39980 ft 457 kts 277°
2026-05-05 18:14 45.57991 10.67858 39985 ft 457 kts 277°
2026-05-05 18:14 45.59112 10.58926 39972 ft 456 kts 277°
2026-05-05 18:15 45.60225 10.50011 39979 ft 456 kts 277°
2026-05-05 18:15 45.61330 10.41096 39971 ft 456 kts 277°
2026-05-05 18:16 45.62429 10.32180 39975 ft 456 kts 277°
2026-05-05 18:16 45.63520 10.23245 39990 ft 456 kts 277°
2026-05-05 18:17 45.64604 10.14311 39975 ft 456 kts 276°
2026-05-05 18:17 45.65649 10.05364 39975 ft 456 kts 275°
2026-05-05 18:18 45.66563 9.96460 39973 ft 456 kts 275°
2026-05-05 18:18 45.67468 9.87481 39968 ft 456 kts 275°
2026-05-05 18:19 45.68386 9.78497 39965 ft 457 kts 275°
2026-05-05 18:19 45.69308 9.69502 39967 ft 457 kts 275°
2026-05-05 18:20 45.70224 9.60504 39968 ft 457 kts 275°
2026-05-05 18:20 45.70986 9.52957 39969 ft 458 kts 275°
2026-05-05 18:21 45.71884 9.43990 40062 ft 458 kts 275°
2026-05-05 18:21 45.72787 9.34909 40050 ft 459 kts 274°
2026-05-05 18:22 45.73378 9.28919 40033 ft 459 kts 274°
2026-05-05 18:22 45.73979 9.22800 40018 ft 459 kts 274°
2026-05-05 18:23 45.74863 9.13738 39979 ft 460 kts 274°
2026-05-05 18:23 45.75738 9.04676 39973 ft 460 kts 274°
2026-05-05 18:24 45.76608 8.95598 39970 ft 460 kts 274°
2026-05-05 18:24 45.77469 8.86523 39969 ft 460 kts 274°
2026-05-05 18:25 45.78324 8.77441 39968 ft 460 kts 274°
2026-05-05 18:25 45.79173 8.68353 39969 ft 460 kts 274°
2026-05-05 18:26 45.80014 8.59254 39974 ft 461 kts 274°
2026-05-05 18:26 45.80849 8.50151 39979 ft 461 kts 274°
2026-05-05 18:27 45.81677 8.41042 39986 ft 461 kts 274°
2026-05-05 18:27 45.82497 8.31930 39994 ft 461 kts 274°
2026-05-05 18:28 45.83714 8.18250 39993 ft 461 kts 274°
2026-05-05 18:28 45.84518 8.09124 39992 ft 462 kts 274°
2026-05-05 18:29 45.85315 7.99976 39990 ft 463 kts 274°
2026-05-05 18:29 45.86107 7.90812 39985 ft 463 kts 274°
2026-05-05 18:30 45.86911 7.81697 39976 ft 465 kts 276°
2026-05-05 18:30 45.88804 7.72792 39962 ft 473 kts 291°
2026-05-05 18:31 45.92206 7.64641 39953 ft 478 kts 299°
2026-05-05 18:31 45.95925 7.56700 39953 ft 480 kts 300°
2026-05-05 18:32 45.99814 7.48898 39934 ft 482 kts 304°
2026-05-05 18:32 46.04070 7.41459 39928 ft 482 kts 306°
2026-05-05 18:33 46.08349 7.33990 39924 ft 483 kts 305°
2026-05-05 18:33 46.12560 7.26438 39913 ft 484 kts 304°
2026-05-05 18:34 46.16739 7.18834 39912 ft 485 kts 304°
2026-05-05 18:34 46.20926 7.11182 39913 ft 486 kts 304°
2026-05-05 18:35 46.25119 7.03500 39928 ft 488 kts 304°
2026-05-05 18:35 46.29283 6.95865 39915 ft 486 kts 304°
2026-05-05 18:36 46.33459 6.88182 39914 ft 486 kts 304°
2026-05-05 18:36 46.37627 6.80492 39909 ft 485 kts 304°
2026-05-05 18:37 46.41785 6.72802 39905 ft 486 kts 304°
2026-05-05 18:37 46.45621 6.64784 39900 ft 483 kts 297°
2026-05-05 18:38 46.49017 6.56380 39899 ft 483 kts 296°
2026-05-05 18:38 46.52345 6.47918 39904 ft 483 kts 296°
2026-05-05 18:39 46.55664 6.39442 39904 ft 483 kts 296°
2026-05-05 18:39 46.58986 6.30962 39907 ft 483 kts 296°
2026-05-05 18:40 46.62306 6.22473 39903 ft 483 kts 296°
2026-05-05 18:40 46.65624 6.13963 39894 ft 484 kts 296°
2026-05-05 18:41 46.68938 6.05438 39896 ft 484 kts 296°
2026-05-05 18:41 46.72250 5.96890 39897 ft 485 kts 296°
2026-05-05 18:42 46.75556 5.88331 39888 ft 485 kts 296°
2026-05-05 18:42 46.78898 5.79749 39872 ft 487 kts 299°
2026-05-05 18:43 46.83270 5.72163 39878 ft 494 kts 316°
2026-05-05 18:43 46.88999 5.66618 39860 ft 499 kts 328°
2026-05-05 18:44 46.95136 5.61681 39858 ft 501 kts 329°
2026-05-05 18:44 47.01235 5.56867 39857 ft 501 kts 329°
2026-05-05 18:45 47.07355 5.51973 39858 ft 501 kts 329°
2026-05-05 18:45 47.13499 5.47006 39857 ft 501 kts 329°
2026-05-05 18:46 47.19558 5.42086 39855 ft 501 kts 329°
2026-05-05 18:46 47.25659 5.37120 39857 ft 501 kts 329°
2026-05-05 18:47 47.31754 5.32149 39853 ft 501 kts 328°
2026-05-05 18:47 47.37812 5.27199 39831 ft 499 kts 328°
2026-05-05 18:48 47.40832 5.24727 39351 ft 496 kts 328°
2026-05-05 18:48 47.43869 5.22237 38577 ft 501 kts 329°
2026-05-05 18:48 47.46923 5.19728 37621 ft 504 kts 329°
2026-05-05 18:48 47.50003 5.17197 36701 ft 507 kts 329°
2026-05-05 18:49 47.53092 5.14654 35817 ft 509 kts 329°
2026-05-05 18:49 47.56189 5.12099 34948 ft 511 kts 329°
2026-05-05 18:49 47.59198 5.09307 34055 ft 510 kts 322°
2026-05-05 18:49 47.61953 5.06037 33525 ft 503 kts 317°
2026-05-05 18:50 47.64624 5.02695 33298 ft 503 kts 317°
2026-05-05 18:50 47.67282 4.99360 33058 ft 497 kts 317°
2026-05-05 18:50 47.69948 4.96010 32841 ft 506 kts 317°
2026-05-05 18:50 47.72638 4.92624 32480 ft 507 kts 318°
2026-05-05 18:51 47.75330 4.89233 31906 ft 507 kts 318°
2026-05-05 18:51 47.78023 4.85835 31336 ft 509 kts 318°
2026-05-05 18:51 47.80723 4.82422 30785 ft 511 kts 318°
2026-05-05 18:51 47.83437 4.78987 30236 ft 513 kts 318°
2026-05-05 18:52 47.86158 4.75539 29657 ft 514 kts 318°
2026-05-05 18:52 47.88877 4.72090 29019 ft 514 kts 318°
2026-05-05 18:52 47.91589 4.68644 28416 ft 510 kts 318°
2026-05-05 18:52 47.94276 4.65224 27805 ft 505 kts 318°
2026-05-05 18:53 47.96930 4.61843 27165 ft 499 kts 318°
2026-05-05 18:53 47.99555 4.58492 26512 ft 494 kts 318°
2026-05-05 18:53 48.02146 4.55180 25889 ft 488 kts 318°
2026-05-05 18:53 48.04711 4.51898 25251 ft 483 kts 318°
2026-05-05 18:54 48.07247 4.48647 24650 ft 477 kts 318°
2026-05-05 18:54 48.09751 4.45434 24104 ft 473 kts 318°
2026-05-05 18:54 48.12233 4.42245 23527 ft 468 kts 318°
2026-05-05 18:54 48.14695 4.39076 22933 ft 464 kts 318°
2026-05-05 18:55 48.17115 4.35919 22332 ft 460 kts 317°
2026-05-05 18:55 48.19513 4.32766 21736 ft 455 kts 317°
2026-05-05 18:55 48.21870 4.29666 21174 ft 447 kts 317°
2026-05-05 18:55 48.24185 4.26620 20589 ft 439 kts 317°
2026-05-05 18:56 48.26384 4.23528 20049 ft 430 kts 311°
2026-05-05 18:56 48.28325 4.20166 19511 ft 422 kts 307°
2026-05-05 18:56 48.30173 4.16791 19042 ft 414 kts 307°
2026-05-05 18:56 48.31980 4.13482 18620 ft 406 kts 307°
2026-05-05 18:57 48.33749 4.10244 18204 ft 399 kts 307°
2026-05-05 18:57 48.35498 4.07043 17820 ft 393 kts 307°
2026-05-05 18:57 48.37232 4.03864 17433 ft 392 kts 307°
2026-05-05 18:57 48.38958 4.00700 17067 ft 390 kts 307°
2026-05-05 18:58 48.40676 3.97549 16707 ft 388 kts 307°
2026-05-05 18:58 48.42358 3.94462 16337 ft 385 kts 307°
2026-05-05 18:58 48.44051 3.91352 16023 ft 383 kts 307°
2026-05-05 18:58 48.45734 3.88258 15758 ft 381 kts 307°
2026-05-05 18:59 48.47408 3.85176 15514 ft 379 kts 307°
2026-05-05 18:59 48.49074 3.82105 15256 ft 377 kts 307°
2026-05-05 18:59 48.50728 3.79054 15008 ft 376 kts 307°
2026-05-05 18:59 48.52378 3.76006 14836 ft 374 kts 307°
2026-05-05 19:00 48.54021 3.72967 14787 ft 373 kts 307°
2026-05-05 19:00 48.55703 3.69984 14804 ft 374 kts 311°
2026-05-05 19:00 48.57702 3.67460 14802 ft 376 kts 320°
2026-05-05 19:00 48.59446 3.64578 14723 ft 370 kts 298°
2026-05-05 19:01 48.60375 3.60999 14546 ft 364 kts 280°
2026-05-05 19:01 48.61004 3.57301 14292 ft 365 kts 288°
2026-05-05 19:01 48.62169 3.53892 14066 ft 366 kts 300°
2026-05-05 19:01 48.63546 3.50652 13824 ft 365 kts 301°
2026-05-05 19:02 48.64933 3.47440 13583 ft 364 kts 301°
2026-05-05 19:02 48.66310 3.44237 13321 ft 362 kts 301°
2026-05-05 19:02 48.67678 3.41042 13054 ft 361 kts 301°
2026-05-05 19:02 48.69036 3.37861 12833 ft 360 kts 301°
2026-05-05 19:03 48.70394 3.34676 12797 ft 359 kts 301°
2026-05-05 19:03 48.71746 3.31498 12802 ft 359 kts 301°
2026-05-05 19:03 48.73096 3.28320 12798 ft 359 kts 301°
2026-05-05 19:03 48.74444 3.25141 12804 ft 359 kts 301°
2026-05-05 19:04 48.75794 3.21955 12803 ft 359 kts 301°
2026-05-05 19:04 48.77141 3.18773 12800 ft 359 kts 301°
2026-05-05 19:04 48.78439 3.15539 12796 ft 363 kts 296°
2026-05-05 19:04 48.79371 3.11892 12796 ft 379 kts 283°
2026-05-05 19:05 48.79923 3.07955 12797 ft 384 kts 279°
2026-05-05 19:05 48.80378 3.03961 12801 ft 384 kts 278°
2026-05-05 19:05 48.80813 2.99962 12807 ft 384 kts 278°
2026-05-05 19:05 48.81216 2.96209 12805 ft 383 kts 278°
2026-05-05 19:06 48.81576 2.92823 12774 ft 383 kts 278°
2026-05-05 19:06 48.81996 2.88847 12529 ft 382 kts 278°
2026-05-05 19:06 48.82414 2.84878 12141 ft 376 kts 278°
2026-05-05 19:06 48.82820 2.81002 11562 ft 369 kts 278°
2026-05-05 19:07 48.83216 2.77191 11062 ft 361 kts 278°
2026-05-05 19:07 48.83471 2.74739 10985 ft 349 kts 278°
2026-05-05 19:07 48.83957 2.70043 10833 ft 325 kts 278°
2026-05-05 19:07 48.84298 2.66738 10731 ft 310 kts 278°
2026-05-05 19:08 48.84623 2.63573 10630 ft 296 kts 278°
2026-05-05 19:08 48.84829 2.61559 10541 ft 288 kts 279°
2026-05-05 19:08 48.85136 2.58551 10063 ft 291 kts 279°
2026-05-05 19:08 48.85447 2.55503 9596 ft 292 kts 279°
2026-05-05 19:09 48.85757 2.52459 9158 ft 290 kts 280°
2026-05-05 19:09 48.86063 2.49447 8724 ft 288 kts 280°
2026-05-05 19:09 48.86367 2.46455 8312 ft 286 kts 280°
2026-05-05 19:09 48.86668 2.43483 7942 ft 284 kts 281°
2026-05-05 19:10 48.86967 2.40520 7830 ft 283 kts 280°
2026-05-05 19:10 48.87264 2.37563 7821 ft 284 kts 280°
2026-05-05 19:10 48.87561 2.34606 7822 ft 283 kts 281°
2026-05-05 19:10 48.87859 2.31644 7821 ft 283 kts 281°
2026-05-05 19:11 48.88155 2.28694 7811 ft 283 kts 280°
2026-05-05 19:11 48.88446 2.25754 7562 ft 281 kts 281°
2026-05-05 19:11 48.88740 2.22802 7047 ft 283 kts 280°
2026-05-05 19:11 48.89032 2.19851 6618 ft 282 kts 281°
2026-05-05 19:12 48.89320 2.16933 6356 ft 275 kts 281°
2026-05-05 19:12 48.89592 2.14128 6243 ft 262 kts 281°
2026-05-05 19:12 48.89680 2.11422 6167 ft 251 kts 270°
2026-05-05 19:12 48.89574 2.08844 6115 ft 238 kts 268°
2026-05-05 19:13 48.89760 2.06453 6085 ft 219 kts 293°
2026-05-05 19:13 48.90566 2.04645 6018 ft 201 kts 325°
2026-05-05 19:13 48.91809 2.03913 5805 ft 190 kts
2026-05-05 19:13 48.93042 2.04453 5530 ft 186 kts 36°
2026-05-05 19:14 48.93867 2.05943 5317 ft 184 kts 58°
2026-05-05 19:14 48.94455 2.07614 5267 ft 172 kts 61°
2026-05-05 19:14 48.94964 2.09184 5191 ft 159 kts 62°
2026-05-05 19:14 48.95430 2.10650 5065 ft 149 kts 61°
2026-05-05 19:15 48.95850 2.11992 5011 ft 133 kts 62°
2026-05-05 19:15 48.96239 2.13238 5012 ft 129 kts 62°
2026-05-05 19:15 48.96632 2.14483 5007 ft 131 kts 61°
2026-05-05 19:15 48.96942 2.15799 4998 ft 134 kts 71°
2026-05-05 19:16 48.97123 2.17187 4997 ft 134 kts 78°
2026-05-05 19:16 48.97231 2.18592 5012 ft 134 kts 80°
2026-05-05 19:16 48.97308 2.20008 4999 ft 135 kts 82°
2026-05-05 19:16 48.97384 2.21429 4963 ft 136 kts 80°
2026-05-05 19:17 48.97485 2.22851 4805 ft 135 kts 79°
2026-05-05 19:17 48.97567 2.24281 4625 ft 135 kts 81°
2026-05-05 19:17 48.97636 2.25675 4415 ft 133 kts 80°
2026-05-05 19:17 48.97711 2.27073 4211 ft 132 kts 79°
2026-05-05 19:18 48.97787 2.28466 4031 ft 132 kts 80°
2026-05-05 19:18 48.97862 2.29867 3851 ft 131 kts 81°
2026-05-05 19:18 48.97933 2.31222 3663 ft 130 kts 81°
2026-05-05 19:18 48.98007 2.32589 3497 ft 129 kts 81°
2026-05-05 19:19 48.98079 2.33948 3329 ft 129 kts 80°
2026-05-05 19:19 48.98152 2.35301 3150 ft 128 kts 79°
2026-05-05 19:19 48.98225 2.36652 2980 ft 128 kts 80°
2026-05-05 19:19 48.98296 2.37999 2813 ft 127 kts 80°
2026-05-05 19:20 48.98367 2.39339 2637 ft 127 kts 79°
2026-05-05 19:20 48.98438 2.40665 2472 ft 125 kts 78°
2026-05-05 19:20 48.98510 2.41987 2295 ft 125 kts 78°
2026-05-05 19:20 48.98549 2.42716 2203 ft 125 kts 78°
2026-05-05 19:21 48.98620 2.44036 2029 ft 125 kts 79°
2026-05-05 19:21 48.98690 2.45359 1862 ft 126 kts 78°
2026-05-05 19:21 48.98761 2.46679 1685 ft 125 kts 78°
2026-05-05 19:21 48.98831 2.47993 1516 ft 125 kts 78°
2026-05-05 19:22 48.98903 2.49317 1352 ft 126 kts 79°
2026-05-05 19:22 48.98974 2.50648 1161 ft 127 kts 80°
2026-05-05 19:22 48.99045 2.51993 978 ft 129 kts 81°
2026-05-05 19:22 48.99119 2.53353 802 ft 130 kts 82°
2026-05-05 19:23 48.99191 2.54719 625 ft 129 kts 82°
2026-05-05 19:23 48.99263 2.56068 463 ft 127 kts 81°
2026-05-05 19:23 48.99337 2.57400 368 ft 124 kts 79°
2026-05-05 19:23 48.99401 2.58553 364 ft 82 kts 86°
2026-05-05 19:24 48.99425 2.59012 363 ft 22 kts 85°
2026-05-05 19:24 48.99461 2.59233 361 ft 21 kts 69°
2026-05-05 19:24 48.99519 2.59422 364 ft 19 kts 65°
2026-05-05 19:24 48.99567 2.59585 363 ft 14 kts 65°
2026-05-05 19:25 48.99591 2.59663 364 ft 0 kts 65°
2026-05-05 19:25 48.99591 2.59664 364 ft 0 kts 65°
2026-05-05 19:26 48.99594 2.59673 364 ft 2 kts 64°
2026-05-05 19:26 48.99604 2.59698 362 ft 2 kts 45°
2026-05-05 19:26 48.99611 2.59697 361 ft 2 kts
2026-05-05 19:26 48.99663 2.59691 367 ft 18 kts 355°
2026-05-05 19:27 48.99810 2.59674 364 ft 20 kts 356°
2026-05-05 19:27 48.99951 2.59656 363 ft 20 kts 355°
2026-05-05 19:27 49.00042 2.59642 366 ft 11 kts 348°
2026-05-05 19:27 49.00077 2.59561 367 ft 8 kts 273°
2026-05-05 19:28 49.00074 2.59463 368 ft 12 kts 266°
2026-05-05 19:28 49.00067 2.59302 365 ft 18 kts 265°
2026-05-05 19:28 49.00056 2.59095 364 ft 21 kts 265°
2026-05-05 19:28 49.00077 2.58918 367 ft 15 kts 310°
2026-05-05 19:29 49.00152 2.58886 367 ft 11 kts 350°
2026-05-05 19:29 49.00217 2.58881 360 ft 9 kts 356°
2026-05-05 19:29 49.00288 2.58874 360 ft 11 kts 354°
2026-05-05 19:29 49.00367 2.58862 360 ft 12 kts 354°
2026-05-05 19:30 49.00446 2.58852 366 ft 11 kts 355°
2026-05-05 19:30 49.00522 2.58843 366 ft 11 kts 355°
2026-05-05 19:30 49.00559 2.58867 367 ft 3 kts 49°
2026-05-05 19:30 49.00571 2.58899 364 ft 2 kts 72°
2026-05-05 19:31 49.00571 2.58914 367 ft 1 kts 86°
2026-05-05 19:31 49.00573 2.58930 365 ft 4 kts 79°
2026-05-05 19:31 49.00575 2.58971 366 ft 3 kts 87°
2026-05-05 19:31 49.00575 2.58973 366 ft 0 kts 87°
2026-05-05 19:33 49.00576 2.58996 366 ft 0 kts 85°
2026-05-05 19:36 49.00574 2.58978 366 ft 0 kts 85°